FW2601 Weather Reports


Display with metric or nautical units.
time (UTC)temp
F
wind
direction
speed
MPH
gust
MPH
rain 1hr
in
rain 24hr
in
rain mn
in
humidity
%
barometer
mb
20260506051110 51 0.0 0.0 0.00 0.00 0.00 84 1009.5
20260506050609 51 0.0 0.0 0.00 0.00 0.00 85 1009.4
20260506050108 51 0.0 0.0 0.00 0.00 0.00 85 1009.5
20260506044607 51 0 5.0 7.0 0.00 0.00 0.00 85 1009.6
20260506044104 51 0 5.0 10.0 0.00 0.00 0.00 85 1009.6
20260506044051 51 0 6.0 10.0 0.00 0.00 0.00 85 1009.6
20260506043326 51 0 6.0 9.0 0.00 0.00 0.00 85 1009.6
20260506042604 51 0 4.0 9.0 0.00 0.00 0.00 85 1009.6
20260506042104 50 0 4.0 10.0 0.00 0.00 0.00 85 1009.7
20260506041603 50 0 4.0 10.0 0.00 0.00 0.00 85 1009.6
20260506041102 50 0 5.0 10.0 0.00 0.00 0.00 85 1009.7
20260506040603 50 0 4.0 11.0 0.00 0.00 0.00 85 1009.6
20260506035606 50 0 5.0 12.0 0.00 0.00 0.00 85 1009.6
20260506035103 50 0 6.0 12.0 0.00 0.00 0.00 85 1009.6
20260506034602 50 0 6.0 11.0 0.00 0.00 0.00 85 1009.6
20260506034101 50 0 4.0 11.0 0.00 0.00 0.00 85 1009.7
20260506033601 50 0 4.0 10.0 0.00 0.00 0.00 85 1009.7
20260506033102 50 0 4.0 10.0 0.00 0.00 0.00 85 1009.6
20260506032603 50 0 5.0 11.0 0.00 0.00 0.00 85 1009.7
20260506032327 50 0 5.0 11.0 0.00 0.00 0.00 85 1009.8
20260506031603 50 0 5.0 10.0 0.00 0.00 0.00 85 1009.7
20260506031330 50 0 6.0 10.0 0.00 0.00 0.00 85 1009.7
20260506030603 50 0 4.0 10.0 0.00 0.00 0.00 85 1009.9
20260506030331 50 0 4.0 10.0 0.00 0.00 0.00 85 1009.8
20260506025601 50 0 5.0 9.0 0.00 0.00 0.00 85 1009.9
20260506025557 50 0 5.0 10.0 0.00 0.00 0.00 85 1009.8
20260506024601 50 0 6.0 10.0 0.00 0.00 0.00 85 1010.0
20260506024100 49 0 5.0 10.0 0.00 0.00 0.00 85 1010.0
20260506023559 49 0 5.0 10.0 0.00 0.00 0.00 85 1009.9
20260506023101 49 0 5.0 9.0 0.00 0.00 0.00 85 1009.9
20260506022600 49 0 6.0 9.0 0.00 0.00 0.00 85 1010.0
20260506022100 49 0 5.0 9.0 0.00 0.00 0.00 84 1009.9
20260506021601 49 0 6.0 10.0 0.00 0.00 0.00 85 1010.1
20260506021100 49 0 3.0 10.0 0.00 0.00 0.00 84 1010.0
20260506020600 49 0 5.0 10.0 0.00 0.00 0.00 84 1010.0
20260506020324 49 0 5.0 9.0 0.00 0.00 0.00 84 1010.0
20260506015602 49 0 4.0 7.0 0.00 0.00 0.00 84 1010.1
20260506015059 49 0 4.0 7.0 0.00 0.00 0.00 84 1010.2
20260506014559 49 0 4.0 10.0 0.00 0.00 0.00 84 1010.2
20260506014059 49 0 6.0 10.0 0.00 0.00 0.00 84 1010.1
20260506013558 49 0 2.0 7.0 0.00 0.00 0.00 84 1010.2
20260506013550 49 0 5.0 13.0 0.00 0.00 0.00 84 1010.3
20260506012558 49 0 4.0 13.0 0.00 0.00 0.00 84 1010.2
20260506012320 49 0 5.0 11.0 0.00 0.00 0.00 84 1010.2
20260506011559 49 0 5.0 11.0 0.00 0.00 0.00 84 1010.4
20260506011059 49 0 7.0 10.0 0.00 0.00 0.00 84 1010.3
20260506010558 49 0 5.0 9.0 0.00 0.00 0.00 84 1010.3
20260506010058 49 0 5.0 9.0 0.00 0.00 0.00 84 1010.4
20260506005559 49 0 5.0 10.0 0.00 0.00 0.00 84 1010.4
20260506005324 49 0 3.0 10.0 0.00 0.00 0.00 84 1010.4
20260506004556 49 0 4.0 9.0 0.00 0.00 0.00 84 1010.5
20260506004058 49 0 5.0 10.0 0.00 0.00 0.00 84 1010.6
20260506003557 49 0 6.0 10.0 0.00 0.00 0.00 84 1010.6
20260506003057 49 0 4.0 11.0 0.00 0.00 0.00 84 1010.6
20260506002558 49 0 4.0 11.0 0.00 0.00 0.00 84 1010.7
20260506002057 49 0 5.0 10.0 0.00 0.00 0.00 85 1010.7
20260506001558 49 0 3.0 10.0 0.00 0.00 0.00 85 1010.9
20260506001548 49 0 4.0 10.0 0.00 0.00 0.00 85 1010.9
20260506000556 48 0 4.0 7.0 0.00 0.00 0.00 85 1010.8
20260506000057 48 0 4.0 12.0 0.00 0.00 0.00 85 1011.0
20260505235558 48 0 6.0 12.0 0.00 0.00 0.00 85 1011.0
20260505235327 48 0 4.0 9.0 0.00 0.00 0.00 85 1011.0
20260505234824 48 0 5.0 9.0 0.00 0.00 0.00 84 1011.1
20260505234056 49 0 4.0 9.0 0.00 0.00 0.00 85 1011.1
20260505233558 49 0 2.0 10.0 0.00 0.00 0.00 85 1011.2
20260505233056 49 0 5.0 10.0 0.00 0.00 0.00 85 1011.2
20260505232555 49 0 4.0 5.0 0.00 0.00 0.00 84 1011.2
20260505232320 49 0 3.0 7.0 0.00 0.00 0.00 84 1011.3
20260505231556 49 0 5.0 7.0 0.00 0.00 0.00 84 1011.3
20260505231055 48 0 4.0 7.0 0.00 0.00 0.00 83 1011.4
20260505230555 48 0 3.0 7.0 0.00 0.00 0.00 83 1011.4
20260505230055 48 0 4.0 7.0 0.00 0.00 0.00 83 1011.3
20260505225556 48 0 4.0 7.0 0.00 0.00 0.00 83 1011.3
20260505225055 48 0 4.0 7.0 0.00 0.00 0.00 83 1011.3
20260505224555 48 0 4.0 7.0 0.00 0.00 0.00 83 1011.3
20260505224054 48 0 4.0 7.0 0.00 0.00 0.00 83 1011.3
20260505223549 48 0 4.0 7.0 0.00 0.00 0.00 83 1011.3
20260505223049 48 0 3.0 7.0 0.00 0.00 0.00 83 1011.4
20260505222821 48 0 5.0 6.0 0.00 0.00 0.00 83 1011.4
20260505222047 48 0 5.0 6.0 0.00 0.00 0.00 83 1011.5
20260505221546 48 0 5.0 6.0 0.00 0.00 0.00 83 1011.4
20260505221046 48 0 5.0 6.0 0.00 0.00 0.00 83 1011.5
20260505220545 48 0 3.0 6.0 0.00 0.00 0.00 83 1011.6
20260505220047 49 0 3.0 6.0 0.00 0.00 0.00 83 1011.6
20260505215544 49 0 4.0 10.0 0.00 0.00 0.00 83 1011.6
20260505215043 49 0 5.0 10.0 0.00 0.00 0.00 83 1011.7
20260505214543 49 0 4.0 7.0 0.00 0.00 0.00 83 1011.8
20260505214042 49 0 5.0 10.0 0.00 0.00 0.00 82 1011.7
20260505213806 49 0 3.0 10.0 0.00 0.00 0.00 82 1011.7
20260505213041 49 0 4.0 10.0 0.00 0.00 0.00 82 1011.8
20260505212542 49 0 4.0 7.0 0.00 0.00 0.00 82 1011.7
20260505212040 49 0 4.0 7.0 0.00 0.00 0.00 82 1011.8
20260505211540 49 0 4.0 9.0 0.00 0.00 0.00 82 1011.9
20260505211039 49 0 5.0 9.0 0.00 0.00 0.00 82 1011.8
20260505210538 49 0 4.0 9.0 0.00 0.00 0.00 82 1011.9
20260505210039 49 0 4.0 7.0 0.00 0.00 0.00 82 1011.8
20260505205539 49 0 4.0 7.0 0.00 0.00 0.00 81 1011.9
20260505205257 49 0 3.0 7.0 0.00 0.00 0.00 81 1012.0
20260505204535 49 0 2.0 11.0 0.00 0.00 0.00 81 1011.9
20260505204034 49 0 4.0 11.0 0.00 0.00 0.00 81 1011.8
20260505203535 49 0 5.0 10.0 0.00 0.00 0.00 80 1011.9
20260505203033 49 0 4.0 13.0 0.00 0.00 0.00 80 1011.9
20260505202531 49 0 4.0 13.0 0.00 0.00 0.00 80 1011.8
20260505202031 50 0 5.0 11.0 0.00 0.00 0.00 80 1011.8
20260505201531 50 0 4.0 11.0 0.00 0.00 0.00 80 1011.7
20260505201255 50 0 4.0 7.0 0.00 0.00 0.00 80 1011.7
20260505200530 50 0 3.0 9.0 0.00 0.00 0.00 80 1011.7
20260505200031 50 0 4.0 12.0 0.00 0.00 0.00 80 1011.7
20260505195533 50 0 7.0 12.0 0.00 0.00 0.00 80 1011.6
20260505195031 50 0 6.0 11.0 0.00 0.00 0.00 80 1011.7
20260505194538 50 0 5.0 12.0 0.00 0.00 0.00 80 1011.5
20260505194531 50 0 6.0 12.0 0.00 0.00 0.00 79 1011.6
20260505193756 50 0 6.0 12.0 0.00 0.00 0.00 79 1011.5
20260505193031 51 0 7.0 13.0 0.00 0.00 0.00 79 1011.5
20260505192532 51 0 7.0 13.0 0.00 0.00 0.00 80 1011.4
20260505192030 51 0 6.0 11.0 0.00 0.00 0.00 80 1011.4
20260505191531 51 0 6.0 12.0 0.00 0.00 0.00 80 1011.5
20260505191031 51 0 8.0 14.0 0.00 0.00 0.00 80 1011.4
20260505190531 51 0 7.0 14.0 0.00 0.00 0.00 80 1011.4
20260505190031 51 0 4.0 10.0 0.00 0.00 0.00 80 1011.3
20260505185754 51 0 2.0 11.0 0.00 0.00 0.00 80 1011.3
20260505185032 51 0 6.0 11.0 0.00 0.00 0.00 80 1011.3
20260505184531 52 0 4.0 11.0 0.00 0.00 0.00 80 1011.3
20260505184031 52 0 4.0 14.0 0.00 0.00 0.00 80 1011.3
20260505183531 52 0 5.0 14.0 0.00 0.00 0.00 79 1011.4
20260505183031 52 0 4.0 11.0 0.00 0.00 0.00 79 1011.4
20260505182757 52 0 5.0 11.0 0.00 0.00 0.00 79 1011.4
20260505182032 52 0 4.0 14.0 0.00 0.00 0.00 79 1011.4
20260505181532 53 0 8.0 14.0 0.00 0.00 0.00 78 1011.4
20260505181032 53 0 5.0 12.0 0.00 0.00 0.00 79 1011.3
20260505180759 53 0 6.0 15.0 0.00 0.00 0.00 79 1011.4
20260505180033 53 0 5.0 15.0 0.00 0.00 0.00 78 1011.4
20260505175530 53 0 7.0 14.0 0.00 0.00 0.00 78 1011.4
20260505175031 53 0 7.0 14.0 0.00 0.00 0.00 78 1011.4
20260505174531 54 0 6.0 13.0 0.00 0.00 0.00 78 1011.4
20260505174031 54 0 7.0 14.0 0.00 0.00 0.00 78 1011.4
20260505173535 54 0 4.0 14.0 0.00 0.00 0.00 78 1011.3
20260505173529 54 0 7.0 17.0 0.00 0.00 0.00 77 1011.3
20260505172530 54 0 5.0 17.0 0.00 0.00 0.00 77 1011.3
20260505172031 55 0 9.0 17.0 0.00 0.00 0.00 76 1011.3
20260505171532 55 0 8.0 17.0 0.00 0.00 0.00 77 1011.2
20260505171031 55 0 10.0 17.0 0.00 0.00 0.00 76 1011.2
20260505170531 55 0 9.0 17.0 0.00 0.00 0.00 76 1011.3
20260505170032 55 0 8.0 16.0 0.00 0.00 0.00 76 1011.2
20260505165805 55 0 7.0 16.0 0.00 0.00 0.00 75 1011.2
20260505165031 55 0 5.0 14.0 0.00 0.00 0.00 76 1011.3
20260505164801 56 0 6.0 15.0 0.00 0.00 0.00 75 1011.4
20260505164033 56 0 9.0 16.0 0.00 0.00 0.00 75 1011.3
20260505163531 56 0 8.0 16.0 0.00 0.00 0.00 75 1011.3
20260505163258 56 0 8.0 15.0 0.00 0.00 0.00 74 1011.3
20260505162802 56 0 8.0 14.0 0.00 0.00 0.00 74 1011.4
20260505162032 56 0 5.0 15.0 0.00 0.00 0.00 75 1011.2
20260505161532 56 0 9.0 16.0 0.00 0.00 0.00 74 1011.3
20260505161031 56 0 8.0 16.0 0.00 0.00 0.00 74 1011.3
20260505160757 57 0 7.0 16.0 0.00 0.00 0.00 73 1011.4
20260505153031 57 0 8.0 16.0 0.00 0.00 0.00 73 1011.4
20260505152531 57 0 7.0 15.0 0.00 0.00 0.00 74 1011.4
20260505152031 57 0 7.0 13.0 0.00 0.00 0.00 74 1011.3
20260505151531 57 0 8.0 15.0 0.00 0.00 0.00 74 1011.4
20260505151031 57 0 9.0 15.0 0.00 0.00 0.00 74 1011.4
20260505150533 57 0 9.0 17.0 0.00 0.00 0.00 73 1011.3
20260505125033 59 0 7.0 15.0 0.00 0.00 0.00 72 1011.8
20260505124530 59 0 5.0 16.0 0.00 0.00 0.00 71 1011.9
20260505124031 59 0 8.0 16.0 0.00 0.00 0.00 70 1012.0
20260505123534 59 0 7.0 15.0 0.00 0.00 0.00 72 1011.9
20260505123031 58 0 8.0 14.0 0.00 0.00 0.00 70 1012.0
20260505122531 58 0 6.0 14.0 0.00 0.00 0.00 71 1012.1
20260505122031 59 0 9.0 14.0 0.00 0.00 0.00 71 1012.1
20260505121531 59 0 6.0 15.0 0.00 0.00 0.00 72 1012.2
20260505121032 59 0 6.0 15.0 0.00 0.00 0.00 71 1012.1
20260505120530 58 0 6.0 18.0 0.00 0.00 0.00 71 1012.0
20260505120031 58 0 7.0 18.0 0.00 0.00 0.00 72 1012.0
20260505115531 58 0 6.0 14.0 0.00 0.00 0.00 73 1012.0
20260505115031 58 0 4.0 15.0 0.00 0.00 0.00 73 1012.2
20260505114531 58 0 9.0 15.0 0.00 0.00 0.00 72 1012.1
20260505114031 58 0 7.0 18.0 0.00 0.00 0.00 72 1012.1
20260505113531 58 0 9.0 18.0 0.00 0.00 0.00 72 1012.2
20260505113031 58 0 7.0 15.0 0.00 0.00 0.00 72 1012.2
20260505112532 58 0 8.0 15.0 0.00 0.00 0.00 73 1012.3
20260505112031 58 0 5.0 12.0 0.00 0.00 0.00 74 1012.3
20260505111531 57 0 4.0 14.0 0.00 0.00 0.00 75 1012.4
20260505111033 57 0 8.0 14.0 0.00 0.00 0.00 75 1012.4
20260505110746 56 0 8.0 14.0 0.00 0.00 0.00 75 1012.5
20260505110725 57 0 7.0 14.0 0.00 0.00 0.00 75 1012.5
20260505102024 58 0 9.0 14.0 0.00 0.00 0.00 74 1012.7
20260505101526 58 0 9.0 15.0 0.00 0.00 0.00 73 1012.7
20260505101026 58 0 8.0 15.0 0.00 0.00 0.00 75 1012.7
20260505100525 58 0 5.0 16.0 0.00 0.00 0.00 74 1012.7
20260505100027 58 0 6.0 16.0 0.00 0.00 0.00 75 1012.7
20260505095525 57 0 5.0 19.0 0.00 0.00 0.00 75 1012.7
20260505095025 57 0 11.0 19.0 0.00 0.00 0.00 75 1012.8
20260505094525 57 0 6.0 17.0 0.00 0.00 0.00 76 1012.8
20260505094253 57 0 7.0 17.0 0.00 0.00 0.00 74 1012.8
20260505093525 57 0 8.0 14.0 0.00 0.00 0.00 75 1012.8
20260505093252 57 0 7.0 16.0 0.00 0.00 0.00 75 1012.7
20260505092523 57 0 6.0 16.0 0.00 0.00 0.00 76 1012.7
20260505092023 57 0 6.0 17.0 0.00 0.00 0.00 77 1012.6
20260505091522 56 0 8.0 19.0 0.00 0.00 0.00 75 1012.5
20260505091023 56 0 7.0 19.0 0.00 0.00 0.00 75 1012.5
20260505090522 56 0 7.0 16.0 0.00 0.00 0.00 75 1012.5
20260505090025 56 0 8.0 15.0 0.00 0.00 0.00 77 1012.5
20260505085522 56 0 8.0 15.0 0.00 0.00 0.00 76 1012.5
20260505085023 56 0 5.0 15.0 0.00 0.00 0.00 77 1012.6
20260505084519 55 0 7.0 15.0 0.00 0.00 0.00 76 1012.5
20260505084245 55 0 9.0 16.0 0.00 0.00 0.00 76 1012.5
20260505083517 55 0 9.0 16.0 0.00 0.00 0.00 76 1012.7
20260505083242 55 0 6.0 14.0 0.00 0.00 0.00 78 1012.8
20260505082746 54 0 6.0 13.0 0.00 0.00 0.00 78 1012.7
20260505082014 54 0 7.0 13.0 0.00 0.00 0.00 79 1012.7
20260505081514 53 0 6.0 13.0 0.00 0.00 0.00 79 1012.8
20260505081014 53 0 6.0 13.0 0.00 0.00 0.00 79 1012.9
20260505080513 53 0 6.0 12.0 0.00 0.00 0.00 78 1012.9
20260505080012 53 0 5.0 14.0 0.00 0.00 0.00 78 1012.9
20260505075511 54 0 7.0 15.0 0.00 0.00 0.00 77 1012.9
20260505075015 55 0 7.0 15.0 0.00 0.00 0.00 79 1013.0
20260505074513 54 0 9.0 15.0 0.00 0.00 0.00 78 1012.9
20260505074013 54 0 8.0 14.0 0.00 0.00 0.00 79 1013.0
20260505073510 53 0 8.0 14.0 0.00 0.00 0.00 78 1013.0
20260505073008 53 0 7.0 14.0 0.00 0.00 0.00 79 1013.0
20260505072508 53 0 4.0 13.0 0.00 0.00 0.00 80 1013.0
20260505072008 52 0 7.0 13.0 0.00 0.00 0.00 81 1012.9
20260505071509 52 0 6.0 15.0 0.00 0.00 0.00 81 1013.2
20260505071006 51 0 7.0 15.0 0.00 0.00 0.00 80 1013.3
20260505070506 52 0 8.0 15.0 0.00 0.00 0.00 81 1013.3
20260505070006 51 0 5.0 11.0 0.00 0.00 0.00 81 1013.2
20260505065503 51 0 6.0 12.0 0.00 0.00 0.00 82 1013.3
20260505065004 51 0 6.0 12.0 0.00 0.00 0.00 82 1013.3
20260505064725 51 0 6.0 13.0 0.00 0.00 0.00 82 1013.3
20260505064004 50 0 6.0 13.0 0.00 0.00 0.00 82 1013.3
20260505063503 51 0 6.0 12.0 0.00 0.00 0.00 82 1013.3
20260505063003 51 0 6.0 12.0 0.00 0.00 0.00 83 1013.3
20260505062501 51 0 5.0 13.0 0.00 0.00 0.00 82 1013.5
20260505062002 51 0 6.0 13.0 0.00 0.00 0.00 82 1013.4
20260505061502 51 0 6.0 13.0 0.00 0.00 0.00 82 1013.3
20260505061005 51 0 6.0 14.0 0.00 0.00 0.00 82 1013.3
20260505060729 51 0 9.0 14.0 0.00 0.00 0.00 83 1013.2
20260505060002 51 0 8.0 13.0 0.00 0.00 0.00 85 1013.2
20260505055504 51 0 5.0 11.0 0.00 0.00 0.00 85 1013.2
20260505055002 50 0 7.0 11.0 0.00 0.00 0.00 85 1013.1
20260505054504 50 0 6.0 10.0 0.00 0.00 0.00 85 1013.1